sat.trackr.live / text

‹ back to catalog

STARLINK-33559

NORAD 62107 · 2024-220V

PAYLOAD ACTIVE UNKNOWN

§ Identity

Operator
Country
US
Launch date
2024-11-25
Launch site
AFETR
Launch vehicle
Mass (kg)
RCS (m²)

Purposes: comms

External: N2YO · Heavens-Above · Gunter

§ Orbital elements

Epoch: 2026-05-25T00:26:17.029824Z

Period
94.27 min
Inclination
42.9988°
Eccentricity
0.0000961
Mean motion
15.27596191 rev/d
Perigee alt
482.3 km
Apogee alt
483.7 km
Semi-major
6,861.1 km
B*
5.9142e-4
RAAN
134.5668°
Arg perigee
330.9902°
Mean anomaly
29.0896°
Rev number
8,486

§ Raw data

STARLINK-335591 62107U 24220V   26145.01825266  .00016056  00000+0  59142-3 0  99952 62107  42.9988 134.5668 0000961 330.9902  29.0896 15.27596191 84869

JSON: /api/v1/satellites/62107 · /tle

For live sub-satellite position, see the globe view (requires WebGL).

§ Visibility from observer

Set your observer location to see the next 7 days of passes ≥ 10°. The values pass through the URL so the page stays shareable.

No JS? Fill the form by hand. The geolocation button needs JavaScript.